GFSGL_sfc_wetblb_195.txt.gz
Wetbulb
36.29 35.41 34.65 34.04 33.80 33.75 33.04 32.76 32.95 33.35 33.78 33.50 33.79 33.91 33.88 33.74 33.60 33.05 32.75 33.20 32.66 32.87 33.11 32.93 33.19 33.68 33.43 33.36 33.76 34.08 34.64 36.70 35.80 36.80 36.87 34.13 33.40 34.48 35.07 35.67 37.25 37.15 37.01
35.44 34.09 33.25 32.71 32.17 31.75 31.55 31.68 32.14 31.65 32.63 32.44 32.46 32.19 31.99 31.96 31.71 31.25 31.01 31.20 30.95 30.88 31.27 31.23 31.21 33.13 31.15 31.47 31.34 31.20 32.42 33.37 34.73 33.16 35.12 34.68 31.30 31.28 32.07 31.86 34.74 35.81 36.79
33.87 32.19 31.15 30.53 29.99 29.82 30.04 30.26 30.26 29.75 29.65 29.81 30.11 29.70 29.74 30.04 30.01 30.46 30.77 30.91 30.64 30.40 30.23 29.76 29.87 29.72 29.08 28.79 28.43 28.80 29.70 31.59 31.38 31.61 31.16 29.66 28.79 28.68 29.07 30.00 30.85 31.71 33.62
31.94 30.18 28.63 28.05 28.52 28.01 27.86 27.88 27.98 28.03 27.64 27.72 28.15 28.14 28.18 28.34 28.99 30.41 30.82 30.01 29.69 29.84 30.02 29.78 29.12 28.46 28.14 28.13 28.52 28.40 29.34 29.06 29.14 28.63 28.45 28.61 26.99 27.15 26.46 26.48 26.67 27.80 28.14
29.34 28.21 27.14 27.29 27.07 26.60 26.40 26.43 26.53 26.15 26.04 26.08 26.17 26.40 26.84 27.61 29.52 30.24 29.96 29.21 28.60 28.26 28.37 28.67 28.83 28.92 31.08 31.07 29.93 29.14 28.96 28.37 27.75 26.93 26.39 26.40 25.50 23.90 24.34 25.48 26.08 25.12 24.50
27.11 25.75 25.30 25.26 25.34 25.09 25.02 24.72 24.67 24.29 24.43 24.83 24.92 25.47 25.55 27.37 30.88 31.97 30.95 28.61 28.28 27.38 26.75 27.28 27.83 27.80 28.98 30.77 31.20 31.70 31.43 29.41 29.17 26.93 26.41 25.02 25.53 24.72 23.89 24.00 23.87 19.16 21.37
25.26 24.72 23.87 23.72 23.81 23.81 24.03 23.73 23.21 22.71 23.25 23.33 23.89 24.45 24.54 25.21 30.19 30.80 30.67 27.35 26.40 26.23 26.27 26.48 26.92 27.32 27.49 27.03 29.05 30.68 30.58 30.96 31.96 29.47 27.94 27.24 25.91 25.59 24.82 23.62 23.49 22.45 22.64
23.25 22.87 22.46 22.22 22.10 22.32 22.18 21.84 21.75 22.02 21.93 22.79 23.03 23.61 23.85 24.53 28.50 29.19 29.40 26.09 25.59 25.61 25.52 25.77 25.78 26.63 27.35 26.87 26.66 25.94 26.53 27.66 26.57 26.57 25.94 24.56 23.35 23.16 22.76 23.82 24.90 23.39 18.85
21.60 20.70 20.18 20.49 20.33 20.35 20.57 20.09 20.62 21.07 21.39 21.76 22.50 22.40 22.26 22.73 26.86 27.82 27.75 25.19 25.06 24.50 25.28 25.45 25.92 25.43 28.12 29.89 26.84 25.28 25.65 26.39 29.79 31.29 31.50 30.37 29.55 28.69 26.62 25.07 23.38 21.30 17.49
19.20 18.76 18.64 18.90 18.77 18.45 19.32 19.17 20.14 20.26 20.92 20.72 20.57 21.39 21.48 21.72 24.80 26.87 26.81 25.15 23.46 23.81 25.31 25.46 26.60 26.72 28.45 29.70 27.06 26.30 25.39 24.63 25.71 26.26 24.07 26.29 22.81 20.04 21.18 19.10 18.38 20.84 21.79
17.07 16.47 16.27 16.43 16.44 18.25 17.55 17.57 18.03 18.14 18.04 16.90 18.08 19.25 19.87 20.93 21.69 25.64 26.81 24.39 23.76 23.34 22.26 22.41 23.81 26.93 28.07 28.59 29.22 28.69 25.88 27.30 27.39 27.85 23.12 17.93 15.62 15.15 14.97 15.02 15.50 16.26 16.52
12.83 12.78 12.09 11.73 15.12 16.33 11.32 14.52 14.34 14.23 13.66 13.38 13.90 16.08 18.25 19.76 21.92 23.28 25.42 26.06 26.31 22.11 21.38 21.56 22.35 25.89 25.80 26.59 26.27 28.82 28.46 26.91 24.72 22.06 17.10 15.45 14.03 12.55 11.90 12.20 12.76 14.08 15.39
6.57 5.07 6.82 9.84 13.43 13.52 10.80 12.95 12.00 10.74 9.88 12.14 15.31 15.14 15.79 18.09 18.15 22.21 23.43 25.26 24.96 22.08 21.49 22.63 23.36 22.92 23.34 22.44 24.32 25.63 23.13 20.13 20.65 15.51 15.10 15.25 14.32 13.07 10.89 9.16 8.67 9.33 9.43
2.56 6.44 9.22 9.42 9.68 11.05 13.27 13.97 10.56 8.94 9.93 13.23 14.97 14.65 15.29 15.56 16.02 18.23 20.63 20.90 22.52 21.53 20.84 17.34 17.84 18.22 19.11 19.27 16.98 19.18 16.20 16.28 16.58 16.21 14.28 12.59 11.53 10.32 8.86 9.09 3.67 3.83 1.51
6.25 7.45 7.35 8.47 6.06 8.68 10.63 9.51 12.55 13.53 15.29 15.98 13.62 15.94 14.66 13.41 16.94 21.92 21.42 20.24 20.06 20.44 17.19 10.97 8.80 9.21 9.71 10.78 11.87 13.45 13.47 13.79 13.30 12.05 10.99 10.33 9.96 9.38 8.39 8.12 4.89 3.19 1.03
5.49 7.06 5.74 6.18 4.54 6.77 6.15 5.83 12.64 16.42 18.34 19.45 19.97 18.64 16.81 19.96 21.22 21.35 22.16 22.92 21.32 19.01 8.95 4.44 5.27 6.63 7.59 8.77 9.55 10.95 11.75 11.75 11.69 11.15 9.51 10.62 9.70 8.71 7.24 5.09 4.33 1.64 1.08
-0.24 1.99 1.53 3.26 1.95 0.81 0.38 0.36 2.13 6.99 13.95 15.49 16.57 17.40 18.38 18.50 18.94 20.03 21.31 19.84 15.51 12.57 -0.66 2.15 3.20 4.65 5.95 7.66 9.36 10.07 9.56 10.26 10.37 10.14 9.83 9.74 9.19 7.92 5.73 3.40 4.36 5.35 3.17
-8.14 -2.51 -5.25 -3.90 -4.90 -5.15 -4.00 -3.66 -4.53 -5.20 -0.65 2.39 8.83 13.34 15.13 15.78 17.14 18.32 17.60 12.31 1.91 2.36 -8.43 0.08 1.08 2.92 4.52 6.69 8.50 8.82 8.96 8.88 8.96 9.26 8.77 7.24 6.59 6.09 3.66 3.05 4.54 2.66 2.41
-6.93 -7.61 -7.92 -8.24 -8.17 -6.29 -6.63 -6.57 -7.67 -8.52 -6.65 -3.45 0.07 5.47 4.86 12.08 14.34 14.40 12.42 -8.42 -4.90 -1.64 -1.19 -0.46 0.63 1.89 4.09 5.87 6.98 7.53 7.48 6.76 7.06 5.34 4.13 3.86 3.31 3.27 1.69 3.73 4.25 3.95 2.17
-12.91 -6.35 -6.67 -10.19 -9.57 -8.68 -7.80 -8.50 -8.37 -8.83 -7.99 -7.09 -5.65 -2.23 0.14 2.59 1.89 -1.19 -5.19 -12.31 -6.22 -2.55 -2.03 -1.68 0.06 1.11 3.46 4.44 4.86 5.61 5.30 5.09 4.21 2.46 1.95 1.17 1.43 2.82 2.66 2.52 2.82 1.38 1.05
-11.57 -11.71 -7.58 -12.09 -12.43 -12.25 -12.05 -11.91 -11.58 -13.79 -10.68 -12.27 -8.80 -5.99 11.28 3.63 -4.31 -5.24 -5.16 -4.43 -5.66 -2.94 -2.31 -1.13 -0.82 -0.70 2.10 3.16 3.34 3.26 3.78 3.76 3.34 1.90 0.62 -0.57 -0.27 -0.88 1.83 2.90 1.56 1.08 0.29
-10.82 -11.35 -13.70 -11.73 -10.86 -9.12 -11.80 -14.43 -16.35 -17.49 -13.87 -12.54 -8.15 -11.02 6.98 -12.92 -9.07 -7.80 -7.78 -6.49 -5.43 -4.42 -3.02 -0.99 -0.74 -1.81 0.47 1.77 1.83 1.33 1.38 2.05 2.10 0.92 0.48 -0.47 -0.75 -1.44 0.05 0.02 -0.14 -0.65 -1.14
-4.49 -5.82 -8.70 -9.85 -12.54 -10.86 -14.56 -17.24 -18.42 -18.56 -15.43 -13.61 -11.88 -9.81 -10.43 -12.21 -12.33 -10.83 -8.95 -6.36 -5.61 -5.09 -3.83 -2.78 -1.68 -1.99 0.09 0.80 1.84 1.58 -0.15 -0.12 1.46 1.79 0.03 -1.32 -1.50 -1.76 -1.00 -1.63 -2.16 -2.69 -2.72
-0.45 -2.98 -3.41 -4.44 -11.96 -14.43 -16.51 -15.33 -16.74 -14.91 -15.10 -13.26 -13.95 -13.51 -12.48 -11.16 -11.73 -9.19 -7.68 -6.59 -6.17 -4.98 -5.33 -6.04 -3.22 -3.47 -1.74 -1.38 -0.68 0.22 0.42 0.56 1.63 0.76 0.57 -0.95 -1.81 -1.48 -1.87 -2.62 -2.69 -3.10 -3.15
-3.99 -3.92 -4.21 -9.50 -13.10 -13.70 -15.91 -13.87 -13.99 -16.77 -13.06 -12.42 -12.05 -16.62 -13.85 -11.86 -10.65 -9.57 -7.58 -6.97 -6.58 -5.74 -6.74 -6.98 -4.62 -4.30 -4.28 -2.46 -3.09 -2.72 -1.57 1.00 1.21 2.00 -1.33 -1.25 -2.22 -2.81 -3.09 -3.28 -4.02 -4.29 -4.63
-3.36 -3.32 -7.22 -10.15 -12.04 -13.07 -15.73 -16.71 -14.36 -13.26 -12.01 -11.42 -11.97 -11.53 -9.93 -8.75 -8.28 -8.51 -7.42 -7.48 -7.36 -5.45 -6.73 -7.86 -7.42 -8.15 -7.10 -4.33 -3.95 -0.63 1.59 5.44 2.58 0.90 -2.04 -2.36 -3.57 -4.19 -4.19 -4.91 -5.27 -5.70 -6.21

GFSGL_sfc_wetblb_201.txt.gz
Wetbulb
34.74 34.29 33.55 32.90 32.38 31.94 31.13 30.97 30.81 31.13 31.02 30.69 30.79 30.85 30.60 30.83 31.84 31.96 31.94 31.41 30.40 30.65 30.69 30.36 29.99 30.90 30.22 30.56 31.11 31.37 31.06 31.40 28.69 31.43 34.01 34.84 34.21 34.72 35.60 36.73 36.91 36.73 37.68
33.50 32.69 31.80 31.44 30.72 29.89 29.39 29.37 29.63 29.02 29.47 29.23 29.25 29.24 29.27 29.82 30.89 30.97 30.34 30.22 29.04 28.71 28.91 28.94 28.23 28.99 28.26 28.98 28.72 28.43 28.57 29.10 27.68 25.49 28.62 29.66 30.13 31.89 33.00 33.20 33.47 34.31 34.98
32.16 30.93 29.80 29.25 28.71 28.04 27.82 27.86 27.80 27.57 27.47 27.71 27.80 27.44 27.71 28.95 30.03 30.59 30.20 29.36 28.70 28.58 28.51 27.95 27.68 28.07 27.09 27.52 27.85 27.78 27.95 28.16 27.86 27.19 26.73 29.75 30.10 31.11 30.84 31.68 31.92 32.22 32.84
30.50 29.23 28.16 27.63 27.09 26.94 26.93 26.66 26.45 26.47 26.34 26.51 26.74 26.86 27.15 28.12 29.87 29.88 29.34 28.39 27.71 27.61 28.10 27.90 27.46 27.11 27.11 27.49 27.14 27.05 27.43 27.24 27.54 27.20 27.14 27.07 28.23 29.88 30.48 28.87 28.76 31.44 30.83
28.31 27.03 26.19 26.88 26.40 26.33 25.91 25.68 25.73 25.57 25.54 25.81 25.59 25.75 25.99 27.26 29.58 29.52 28.66 27.55 26.49 26.35 26.88 26.95 26.97 27.25 27.82 28.33 27.50 27.37 27.28 26.89 26.67 26.04 25.17 25.75 25.84 26.18 25.69 27.79 27.01 28.67 29.69
26.80 25.43 25.34 25.65 25.29 24.83 24.64 24.42 24.33 24.07 24.36 24.66 24.18 24.08 24.21 25.58 29.67 30.06 29.45 26.28 25.96 25.56 24.86 25.66 26.29 26.59 26.33 27.30 28.29 29.13 28.59 26.14 24.78 24.72 24.59 23.84 24.39 25.08 26.51 25.45 26.06 25.35 23.25
25.66 24.70 24.04 24.07 23.51 23.25 23.32 22.97 22.43 22.38 22.97 22.80 22.90 23.06 23.05 23.70 28.47 29.16 28.78 26.05 25.43 25.07 24.75 24.82 24.10 24.81 25.13 25.06 26.93 27.24 26.17 26.94 27.19 25.35 23.46 24.05 24.27 26.25 26.95 25.92 26.04 25.78 24.56
24.11 23.04 22.47 22.26 22.03 21.94 21.48 20.78 20.96 21.42 21.34 21.37 21.76 22.19 22.16 22.95 26.97 28.07 27.94 25.59 24.94 24.78 24.99 24.00 23.30 22.96 23.40 24.97 24.47 22.84 22.82 23.35 23.72 24.49 24.61 25.10 26.64 29.39 28.64 26.95 26.26 26.82 26.30
22.34 21.15 20.59 20.75 20.41 20.24 19.93 19.09 19.96 20.11 20.55 20.24 21.09 21.13 20.81 21.27 25.29 26.82 26.60 24.44 23.67 23.59 24.39 23.86 23.13 22.41 24.29 26.03 22.29 20.54 20.40 20.48 23.69 25.50 26.25 27.04 27.34 27.65 27.09 24.79 23.12 23.18 22.34
20.60 19.86 19.13 19.24 18.88 18.63 18.32 18.31 19.02 19.05 19.26 19.20 19.34 20.31 20.46 20.12 22.69 25.56 26.05 23.80 22.22 22.66 22.96 22.92 23.48 22.96 24.87 24.17 20.69 19.26 16.04 17.77 19.94 18.50 18.40 19.92 21.61 22.57 24.92 22.85 22.24 19.18 19.79
18.70 17.63 16.77 16.68 16.91 17.97 16.88 17.05 17.04 17.04 16.61 16.14 17.18 18.42 19.06 19.64 19.88 24.06 25.48 23.19 22.34 21.39 21.22 21.18 21.21 23.44 22.56 21.99 21.82 17.33 17.75 20.13 15.95 14.78 15.31 16.19 18.02 20.01 20.76 20.28 19.15 17.25 16.31
14.86 14.46 13.66 13.02 16.02 16.44 12.31 14.81 14.53 14.20 13.69 14.15 14.90 16.23 17.77 18.58 20.14 22.17 24.00 24.32 24.19 21.08 20.40 19.97 20.06 21.09 19.88 19.41 17.63 19.21 19.95 16.16 13.83 13.25 13.02 13.74 14.90 15.20 15.51 15.42 15.21 15.36 15.80
10.93 8.57 8.45 10.41 14.02 14.06 12.44 13.08 13.01 12.10 12.04 13.27 14.93 15.07 15.36 17.01 17.10 20.54 21.55 23.13 22.63 21.27 20.25 19.72 18.39 17.62 16.18 13.76 14.87 16.07 13.02 11.96 11.31 10.84 10.88 12.01 13.81 14.95 14.80 14.35 14.65 14.34 13.95
6.77 8.32 9.48 9.86 10.85 11.48 13.78 13.89 12.28 11.02 11.21 13.54 14.37 13.98 13.71 14.36 15.17 17.28 19.90 19.83 20.71 19.91 17.60 9.79 13.33 12.02 11.75 11.54 8.22 9.94 10.25 10.68 9.83 10.03 10.16 11.84 13.91 14.24 13.23 13.04 11.28 11.34 9.96
8.63 8.95 9.91 9.89 9.04 10.08 10.89 10.84 12.44 13.32 13.91 11.86 12.70 13.45 12.12 12.50 16.01 20.70 20.29 19.25 19.17 18.04 8.82 5.82 3.77 3.66 3.60 4.32 4.89 5.59 7.64 8.23 7.79 8.90 8.99 9.91 10.93 11.80 11.72 12.34 10.51 9.16 7.19
8.65 8.81 8.41 8.41 7.59 8.33 7.59 7.38 12.92 16.65 17.79 18.88 19.17 17.80 16.63 18.40 19.59 20.08 20.77 20.36 18.44 16.43 2.44 -0.11 -0.39 0.58 0.64 1.17 1.49 2.32 4.91 5.02 6.10 6.93 7.95 8.53 8.40 8.70 8.80 9.33 8.84 7.05 5.78
7.27 7.40 6.43 6.82 5.26 4.91 4.68 4.25 4.90 7.82 13.47 15.18 15.54 15.86 16.76 16.72 17.64 18.84 18.37 16.60 11.73 7.65 -2.56 -4.25 -2.90 -1.66 -1.12 0.03 0.57 0.95 1.42 3.75 4.72 5.71 6.24 6.31 6.75 6.77 6.40 5.80 6.03 5.86 5.23
0.05 2.93 3.32 2.73 2.60 0.84 1.30 2.11 3.57 5.38 5.89 5.94 7.94 11.31 13.04 13.87 15.89 16.29 14.89 5.27 -2.55 -2.74 -6.13 -5.56 -5.11 -3.60 -2.28 -1.59 -0.85 -0.73 0.61 2.12 2.71 3.66 4.54 4.86 4.68 4.58 3.62 3.81 4.20 3.48 3.94
0.04 -0.95 -1.08 -1.88 -2.15 0.50 2.00 2.68 2.91 3.17 3.53 2.87 1.65 4.94 5.20 9.59 11.89 11.07 8.24 -4.85 -9.00 -7.60 -6.57 -5.85 -4.67 -4.64 -3.32 -2.08 -1.57 -1.47 -0.68 0.08 0.63 1.39 2.59 3.00 3.23 2.91 1.72 2.69 3.26 2.95 3.69
-2.35 0.13 -0.65 -0.69 0.78 2.11 3.04 2.82 3.26 2.85 2.16 0.73 0.00 -1.02 -2.24 -0.11 -0.58 -4.24 -5.73 -9.66 -9.18 -8.45 -7.35 -7.68 -5.82 -5.51 -4.38 -3.36 -2.64 -2.23 -1.79 -1.53 -1.25 -0.26 0.66 1.55 2.00 1.81 0.96 1.31 1.86 1.60 2.15
-0.42 0.36 1.61 2.04 1.84 2.12 2.69 2.78 3.13 1.33 0.62 -0.72 -1.92 -3.02 9.50 -0.18 -7.93 -10.26 -11.06 -9.64 -9.50 -9.46 -8.69 -8.69 -6.94 -6.82 -5.69 -4.24 -3.53 -3.16 -3.01 -2.75 -2.54 -1.83 -0.79 0.03 0.70 -0.29 0.91 1.19 0.91 1.29 0.22
2.48 2.67 1.48 1.78 3.45 2.93 2.70 2.64 1.47 0.33 -1.68 -4.03 -4.17 -6.26 5.79 -8.97 -11.43 -12.17 -11.46 -10.28 -8.32 -9.59 -9.06 -9.20 -8.95 -7.39 -5.90 -5.56 -4.45 -3.90 -3.96 -4.40 -3.52 -2.69 -2.33 -1.74 -0.59 0.05 -0.13 -0.39 -0.88 -0.24 -0.39
1.80 1.39 1.62 2.61 3.61 3.15 1.43 0.12 -1.55 -3.73 -5.49 -7.10 -8.31 -10.78 -12.88 -11.96 -11.75 -11.26 -10.17 -8.84 -8.77 -9.18 -8.68 -10.51 -10.19 -9.14 -6.37 -7.08 -4.47 -3.74 -4.64 -4.51 -3.31 -2.38 -3.23 -2.03 -1.75 -0.94 -0.67 -1.41 -1.86 -2.05 -1.42
2.22 3.65 4.18 4.03 2.65 1.19 0.39 -1.21 -3.77 -4.76 -5.98 -9.08 -14.27 -14.42 -12.05 -10.44 -11.38 -10.08 -9.06 -8.03 -8.96 -9.40 -9.73 -10.67 -10.34 -10.00 -8.55 -8.03 -6.39 -5.67 -4.70 -4.04 -2.82 -2.49 -0.97 -2.01 -2.20 -1.56 -1.55 -2.09 -2.23 -2.45 -1.68
4.41 4.04 3.89 3.29 1.50 0.82 -0.80 -3.34 -4.51 -5.73 -7.23 -10.97 -11.81 -13.37 -11.84 -10.61 -10.57 -9.03 -8.15 -8.79 -10.37 -10.26 -9.68 -9.79 -8.81 -9.28 -10.11 -10.59 -10.44 -10.23 -9.02 -6.15 -5.15 -1.92 -0.01 0.07 -2.11 -2.98 -2.95 -2.50 -2.63 -2.48 -2.75
3.39 2.07 1.40 1.06 -0.25 -1.73 -3.29 -4.71 -6.20 -7.33 -10.62 -11.98 -11.65 -11.57 -11.09 -10.11 -8.91 -8.79 -8.52 -9.48 -10.78 -10.54 -10.76 -8.67 -8.15 -10.45 -10.58 -9.08 -8.93 -7.71 -4.88 1.55 2.51 3.77 5.38 -0.78 -3.37 -3.49 -3.08 -3.46 -3.48 -3.27 -3.71

GFSGL_sfc_wetblb_207.txt.gz
Wetbulb
37.66 37.38 36.38 36.25 36.47 36.13 35.44 35.60 35.73 35.53 35.23 34.69 34.66 34.77 34.89 34.80 34.99 34.49 33.65 33.38 32.62 32.71 32.66 32.05 31.39 32.08 31.59 31.83 31.94 31.62 30.79 30.22 26.36 28.34 30.56 31.39 31.03 30.69 31.57 32.32 33.00 32.34 33.18
36.65 36.12 35.16 34.82 34.67 34.61 34.58 34.30 34.23 33.22 33.61 33.30 33.26 33.52 33.78 33.79 33.55 32.77 31.94 31.70 30.84 30.34 30.56 30.37 29.52 30.02 29.72 30.21 29.72 29.38 29.18 29.49 27.20 24.60 27.80 28.22 28.36 29.46 29.48 29.05 30.24 31.68 30.76
35.90 34.61 34.18 34.18 33.99 33.26 32.84 32.91 33.05 32.78 32.19 32.06 31.86 31.71 32.29 32.56 32.30 32.24 31.63 30.84 30.47 30.03 29.63 28.75 28.30 28.18 27.40 27.28 27.69 27.54 28.07 28.36 27.62 25.31 24.09 26.45 26.85 27.31 26.42 27.16 27.35 27.37 29.47
35.56 34.95 33.86 33.58 33.14 32.44 32.11 31.66 31.18 31.53 31.02 30.71 30.46 30.41 31.09 31.92 31.80 31.79 31.18 29.95 29.67 29.66 29.83 29.09 28.13 26.81 25.55 25.41 25.80 26.13 26.59 25.43 24.98 23.48 22.72 22.89 23.42 24.63 24.38 22.19 21.51 23.98 23.87
35.11 34.16 32.83 32.27 32.19 31.61 30.74 30.46 30.42 30.22 29.69 29.54 29.34 29.03 29.52 30.56 30.28 30.02 29.89 28.74 28.02 27.82 28.49 28.16 27.89 26.61 26.55 26.48 25.54 25.48 24.97 23.38 22.38 21.20 20.37 20.24 19.96 20.29 19.36 20.80 19.21 20.40 21.62
34.27 32.89 32.23 31.19 30.53 30.02 29.60 29.07 28.79 28.48 28.46 28.08 27.31 27.32 27.13 28.70 29.40 29.86 29.13 27.63 27.44 26.90 26.13 27.08 27.03 26.82 25.92 26.60 27.15 27.31 25.68 22.18 20.60 19.70 18.91 17.47 18.56 19.26 19.00 18.29 18.16 16.72 14.82
32.14 30.45 29.92 29.56 28.48 28.02 27.63 27.16 26.61 26.56 26.72 26.17 26.07 26.20 25.80 26.53 27.95 28.59 28.58 27.38 26.58 26.64 26.11 26.00 25.18 25.50 25.48 24.57 25.03 24.93 24.15 24.67 24.16 20.71 17.83 18.28 17.86 18.02 18.51 17.68 17.43 17.39 17.06
30.55 29.31 28.32 28.05 27.27 26.40 25.89 25.53 25.23 25.54 25.26 25.05 25.04 25.09 25.00 24.73 25.88 27.27 27.80 27.01 26.53 26.16 26.07 25.36 24.69 23.91 24.03 23.35 22.14 20.82 20.79 20.95 20.83 21.16 20.18 19.22 18.88 19.86 19.66 19.30 19.03 17.15 16.66
29.43 28.15 27.28 26.97 25.87 25.16 24.52 24.11 24.33 24.26 24.14 23.97 24.05 23.98 23.50 23.97 24.01 25.91 26.52 25.90 25.25 24.90 25.31 24.93 24.27 22.98 23.85 23.91 20.45 18.55 18.12 18.11 21.49 22.42 21.64 21.48 21.85 22.10 21.38 18.57 14.08 12.15 10.23
28.60 27.51 26.54 25.75 25.24 24.44 24.26 23.27 23.69 23.27 23.24 22.91 22.75 23.26 22.90 22.38 23.02 24.39 25.65 25.06 23.58 23.53 24.15 24.39 24.65 23.23 23.05 22.77 19.19 17.24 14.14 15.67 16.82 14.70 15.31 16.78 17.99 18.02 19.64 17.61 15.76 11.77 11.01
26.99 25.23 23.96 23.69 23.45 23.98 23.07 22.57 22.35 22.07 21.68 21.45 21.33 22.55 22.19 22.15 22.00 23.04 24.74 23.61 22.83 22.28 22.32 22.45 22.20 22.18 21.70 21.20 20.62 16.08 15.66 17.42 13.32 12.34 12.17 12.56 13.67 14.08 14.47 15.63 16.01 15.47 12.08
24.28 22.82 21.97 21.23 22.03 22.54 21.00 21.22 20.65 20.84 20.38 20.70 21.37 21.62 22.65 21.68 21.95 22.28 23.24 23.33 23.71 21.67 21.15 20.98 19.63 20.48 19.69 19.04 17.42 17.63 18.08 14.18 11.36 9.94 8.67 9.17 9.59 10.22 11.94 13.20 14.86 15.14 15.74
21.20 20.07 19.86 19.67 21.11 22.12 20.85 20.57 20.20 20.79 20.87 21.76 21.40 21.71 22.05 22.02 21.47 21.88 22.73 23.22 23.28 21.94 21.29 19.97 19.77 17.93 16.70 14.67 14.83 15.77 11.27 9.66 8.49 6.36 6.71 7.52 8.69 10.48 11.31 11.54 12.43 12.64 13.29
20.47 19.76 19.15 18.25 19.27 19.70 20.63 21.66 21.37 21.61 20.67 21.01 21.16 21.14 21.62 20.54 20.24 21.54 22.27 22.32 22.55 20.95 19.12 15.84 14.69 14.60 14.52 13.87 10.36 10.86 9.74 8.61 7.00 6.33 6.59 7.12 8.69 8.66 8.33 9.55 8.02 8.80 8.27
20.58 19.98 20.36 20.18 19.28 20.44 19.99 21.04 20.11 21.68 22.12 21.41 21.96 21.81 20.42 19.28 20.28 20.78 20.84 20.60 19.97 17.96 14.18 11.68 9.88 9.56 8.37 8.22 7.64 7.21 7.46 7.09 5.57 6.39 4.28 5.14 5.44 6.20 6.13 7.32 6.88 6.58 5.15
20.83 20.74 20.94 21.18 20.77 19.68 20.02 19.09 21.34 21.77 21.13 21.80 22.99 22.77 22.05 20.78 20.59 20.14 20.59 20.51 19.21 16.22 9.55 7.57 6.82 6.89 5.62 5.13 4.58 4.52 5.30 4.63 4.91 3.56 4.26 3.96 3.20 3.40 3.62 4.45 5.21 4.18 3.22
22.32 23.19 22.14 19.23 20.65 19.41 18.55 18.44 17.81 18.10 21.14 22.20 22.60 22.14 20.73 19.61 18.52 18.64 19.23 18.10 15.40 11.88 5.73 5.44 5.22 4.81 4.03 4.05 3.63 3.27 2.53 3.72 3.44 3.81 2.75 1.93 2.24 1.84 1.76 2.09 2.53 2.28 1.74
19.87 18.72 22.58 20.91 20.20 19.84 18.98 18.06 17.86 18.07 14.57 14.22 19.83 17.85 17.49 17.61 16.03 17.07 16.54 13.43 7.25 7.62 5.11 4.15 3.00 3.00 3.00 2.43 2.26 1.83 1.76 1.90 1.43 1.70 0.52 0.98 0.68 0.34 -0.03 0.14 0.53 -0.14 0.24
19.08 20.81 19.00 21.02 19.91 18.30 18.16 16.90 15.88 14.92 14.85 15.82 14.18 13.15 15.19 13.49 13.69 14.86 11.80 5.42 3.72 3.17 3.82 2.89 2.73 2.00 1.74 1.50 1.21 0.67 0.26 0.20 0.53 0.13 0.52 0.03 -0.37 -0.67 -1.51 -0.90 -0.14 0.11 0.50
17.73 17.37 17.35 18.47 17.06 14.60 14.69 14.12 13.62 13.29 13.29 13.69 12.85 12.18 10.56 6.36 7.79 9.02 6.88 5.14 3.36 2.85 3.03 2.22 2.06 1.82 0.85 0.03 -0.24 -0.85 -0.91 -0.50 -0.23 -0.31 -0.96 -1.42 -1.31 -1.52 -2.65 -2.26 -1.18 -1.24 -0.53
18.81 17.55 13.56 15.65 14.94 13.43 13.67 13.09 13.32 13.51 12.89 12.84 12.49 11.32 10.58 8.58 8.88 6.48 4.38 3.33 2.45 1.79 1.63 1.89 1.19 0.65 0.00 -0.81 -1.88 -1.91 -1.54 -1.09 -1.10 -1.25 -2.08 -2.10 -2.67 -4.26 -2.71 -1.32 -0.81 -0.38 0.15
18.85 17.04 12.10 12.64 14.14 13.38 12.91 13.24 12.81 12.41 11.91 10.95 10.04 7.87 11.24 5.38 4.78 3.38 2.98 2.14 1.86 1.81 1.61 0.46 -0.46 -0.51 -0.80 -1.74 -2.50 -2.93 -3.72 -3.55 -2.68 -2.08 -2.61 -3.54 -4.23 -3.81 -3.00 -1.85 -1.36 -0.68 -0.99
16.30 15.36 13.84 12.80 13.37 11.21 10.87 11.80 11.26 10.68 10.16 9.08 8.06 5.85 4.22 3.57 2.78 1.93 1.42 0.99 1.12 0.54 0.23 -0.88 -1.80 -2.91 -2.27 -2.92 -2.19 -1.86 -2.88 -3.53 -3.42 -2.43 -4.48 -5.21 -5.36 -5.06 -3.52 -2.66 -1.49 -2.16 -1.60
14.69 14.34 13.74 12.60 11.61 11.07 10.61 10.09 9.62 8.13 8.31 7.53 5.97 4.47 3.32 2.28 1.44 0.71 -0.32 0.25 -0.42 -1.18 -1.59 -3.29 -4.33 -5.34 -5.16 -5.77 -4.70 -3.82 -2.60 -1.67 -1.61 -3.65 -4.93 -5.21 -5.40 -4.66 -2.73 -1.61 -1.60 -1.75 -1.26
13.21 12.95 12.51 11.25 10.40 9.51 9.86 9.72 8.83 7.23 6.36 5.64 4.31 3.07 2.13 1.02 -0.53 -0.81 -0.68 -0.65 -3.28 -3.80 -5.07 -5.78 -5.15 -6.47 -7.11 -8.26 -7.41 -7.43 -5.94 -3.43 -4.93 -5.45 -5.70 -5.51 -5.50 -4.44 -2.67 -0.47 -1.37 -1.42 -1.93
11.20 11.17 11.26 11.35 10.56 9.49 9.22 8.03 7.29 6.75 5.18 4.06 2.63 1.49 0.43 -0.95 -1.59 -2.41 -3.43 -4.48 -5.31 -6.40 -7.02 -5.93 -6.15 -7.71 -7.58 -6.00 -5.57 -4.35 -4.08 -0.07 -1.54 -2.54 -3.50 -3.89 -3.03 -0.20 -0.39 -1.92 -2.08 -1.92 -2.33

GFSGL_sfc_wetblb_210.txt.gz
Wetbulb
37.28 37.44 37.29 36.61 36.08 35.62 34.78 34.68 34.29 33.79 33.73 33.11 32.72 33.04 32.93 32.31 32.17 31.52 30.98 30.71 30.19 29.84 29.40 28.77 27.81 28.14 27.20 27.45 27.44 27.25 26.70 26.12 22.54 24.54 26.38 27.09 25.76 25.36 26.33 26.41 27.24 26.70 26.94
37.99 36.44 34.92 34.28 33.93 33.36 32.15 32.26 32.37 31.03 31.91 31.37 31.82 32.25 32.42 31.97 31.48 30.78 29.80 29.56 28.74 27.67 27.80 26.68 26.04 28.01 25.62 25.29 24.91 24.59 24.85 25.05 22.92 20.85 23.00 23.05 22.88 23.92 23.39 22.93 24.98 26.18 23.72
34.84 33.39 33.00 32.40 32.16 30.65 30.68 31.08 31.57 30.82 30.25 30.12 30.75 30.55 31.04 31.04 30.74 30.51 29.87 29.09 28.27 27.55 27.19 25.73 25.63 24.96 23.44 23.38 23.18 23.01 23.77 24.87 23.11 21.31 20.01 21.82 21.92 22.02 21.09 22.19 21.96 20.82 23.57
34.05 33.16 32.07 31.69 31.49 30.41 30.44 29.81 29.71 29.68 29.10 28.93 28.91 29.45 29.98 30.27 30.22 30.04 29.43 27.34 26.64 26.92 27.43 26.49 25.43 23.59 22.91 22.57 23.20 22.67 23.58 21.75 21.22 19.88 19.24 19.05 19.29 20.34 20.37 18.08 16.47 19.25 19.14
33.31 32.56 31.61 30.89 30.49 29.98 28.89 28.46 28.46 28.14 28.12 27.97 27.35 27.12 27.82 29.00 29.62 28.30 27.43 26.09 25.28 25.05 25.60 25.81 25.11 25.66 26.68 25.96 24.12 22.56 21.59 20.25 19.38 18.64 17.58 17.17 16.68 17.31 16.38 16.78 16.23 17.40 18.06
32.63 31.62 30.88 29.37 28.50 28.07 27.60 27.15 26.48 26.23 25.94 25.74 25.36 25.11 24.53 28.45 29.42 29.60 28.17 25.95 25.61 25.05 24.12 24.30 24.13 25.16 24.85 25.86 25.96 25.84 24.04 19.74 18.67 17.41 16.43 15.13 16.16 16.52 16.25 15.97 15.98 14.06 11.99
30.65 29.28 28.59 27.97 27.27 26.92 26.57 25.94 25.47 24.66 24.21 23.85 23.70 23.98 23.65 24.84 27.79 28.33 28.18 25.93 24.88 24.07 23.91 24.07 23.70 24.25 23.50 22.56 23.60 23.59 22.27 23.22 22.61 18.77 16.03 16.08 15.21 15.78 16.74 16.04 15.41 14.80 12.76
28.48 27.39 27.07 26.46 25.80 25.28 24.51 24.17 23.75 23.48 23.02 22.92 23.11 23.38 23.27 23.91 25.91 26.94 27.38 25.25 24.14 23.77 23.58 22.83 22.53 22.32 22.20 22.85 21.28 19.33 18.97 18.93 18.75 19.56 18.13 17.01 17.24 18.32 17.85 17.28 15.78 13.64 13.46
27.56 26.63 25.96 25.71 24.93 23.98 23.26 22.57 22.55 22.56 22.54 22.38 23.41 22.80 22.54 22.80 24.61 25.57 25.95 24.31 24.27 23.25 23.92 22.81 22.74 21.62 23.68 24.00 20.00 17.54 16.91 16.37 20.00 21.21 20.26 20.01 20.12 20.08 19.39 14.79 9.99 8.93 7.29
27.05 26.22 25.35 24.88 24.31 22.98 22.89 22.11 22.51 22.10 23.31 22.67 22.91 22.46 22.84 22.00 24.28 24.11 25.10 24.58 22.84 22.96 22.82 23.58 24.34 22.81 23.54 23.11 18.97 16.48 12.43 14.19 14.51 12.25 12.50 13.76 14.92 15.04 16.79 13.83 11.59 7.71 7.94
26.49 24.83 23.35 23.26 22.67 22.72 21.98 21.01 20.77 20.18 21.26 18.72 20.52 20.80 20.35 21.25 21.43 23.61 24.64 23.20 22.61 21.34 21.09 20.96 20.72 22.73 22.36 21.80 21.18 14.60 14.88 16.59 10.16 8.25 8.54 8.39 9.57 9.93 10.47 11.55 11.46 10.59 8.15
22.65 21.57 20.32 18.75 21.17 21.07 17.17 17.68 17.67 16.78 15.43 14.64 14.80 17.00 19.82 20.52 21.66 22.56 23.86 23.58 23.54 20.09 19.85 19.45 18.49 21.41 20.71 19.96 17.44 18.18 18.71 12.43 5.71 4.74 4.02 5.13 6.42 6.38 7.95 9.33 10.22 10.52 10.69
18.83 17.31 15.67 16.30 19.23 19.57 16.39 16.63 14.74 13.92 14.47 15.35 17.86 16.18 16.87 19.50 19.61 23.20 23.24 23.49 23.83 20.55 20.54 20.19 20.44 18.71 17.62 14.66 15.46 16.16 9.08 4.73 2.54 -1.83 2.51 4.86 5.21 6.57 7.60 7.44 8.15 8.06 8.48
16.10 15.55 15.55 15.24 15.90 15.81 19.50 18.93 16.51 15.50 15.17 16.64 16.58 15.65 13.93 16.29 17.45 17.00 19.02 15.93 19.98 18.61 16.74 11.50 14.57 15.11 14.97 13.46 6.44 8.74 7.89 5.28 0.77 1.43 3.40 3.37 4.53 4.75 4.08 5.56 4.23 4.68 4.06
16.17 16.18 16.45 16.29 15.47 16.18 17.14 17.48 18.74 18.58 19.06 13.07 12.57 14.74 13.93 11.04 16.72 20.56 18.75 13.62 12.61 16.37 5.48 3.11 2.30 2.21 1.53 2.11 2.14 1.98 1.51 1.04 -1.62 -0.33 0.41 0.52 2.67 2.26 2.23 3.34 2.88 2.68 0.48
16.75 16.89 16.64 16.86 15.89 16.41 16.00 15.53 23.46 23.70 24.06 25.22 25.06 20.35 19.38 21.99 22.47 22.07 21.32 21.37 20.83 18.37 0.51 -3.28 -4.53 -2.27 -0.94 -0.97 -1.79 -1.15 -1.30 -2.52 -2.50 -2.01 0.60 1.47 -0.15 -0.14 -0.29 0.56 1.29 0.18 -1.38
18.25 16.86 17.22 17.22 16.97 15.89 15.36 14.49 13.43 14.77 24.52 24.38 23.98 24.32 25.05 21.22 21.77 20.99 20.25 20.16 18.30 13.04 -4.22 -7.89 -4.40 -3.49 -4.31 -1.62 -1.60 -3.76 -3.61 -4.37 -6.22 -5.29 -0.23 -2.16 -1.18 -1.23 -2.16 -2.41 -1.39 -1.39 -2.19
17.16 16.85 18.50 17.84 17.33 15.05 14.15 14.01 11.63 9.94 9.79 7.51 18.93 22.23 23.65 22.34 21.15 19.18 18.98 15.72 2.72 1.27 -7.42 -7.88 -6.74 -8.08 -7.21 -4.60 -4.90 -6.78 -5.15 -5.54 -6.54 -3.07 -4.80 -2.91 -4.81 -3.34 -4.06 -4.23 -3.72 -3.72 -3.29
13.77 16.42 15.35 10.92 13.14 13.71 12.88 11.55 10.35 5.91 4.87 3.09 3.79 16.16 17.26 19.79 19.14 17.42 17.61 3.10 -3.26 -6.95 -9.68 -10.67 -11.12 -10.63 -7.92 -8.46 -8.54 -8.13 -8.28 -6.98 -6.33 -5.25 -9.04 -8.30 -11.05 -6.60 -5.21 -5.44 -5.09 -3.97 -3.47
9.26 11.63 11.32 11.86 8.05 6.76 7.99 8.46 6.14 6.59 5.65 5.88 6.77 8.62 3.70 4.15 3.48 3.62 -0.50 -2.38 -5.43 -6.44 -9.34 -11.47 -10.08 -11.74 -10.52 -11.47 -10.94 -10.29 -10.38 -9.55 -7.49 -8.98 -10.08 -11.92 -12.66 -9.82 -4.93 -6.22 -6.09 -5.05 -4.01
8.00 6.91 10.31 5.96 7.21 7.43 7.71 8.52 7.52 7.14 7.71 9.47 8.68 9.21 12.24 5.41 4.58 4.07 2.19 -2.80 -5.31 -9.27 -11.47 -12.86 -12.43 -14.62 -15.87 -13.37 -11.81 -11.47 -10.12 -6.59 -10.37 -10.91 -10.96 -12.79 -12.54 -6.84 -6.18 -5.56 -5.51 -3.93 -3.09
6.35 8.82 6.31 8.45 5.09 8.48 8.48 8.57 9.22 10.46 10.61 10.13 5.95 7.15 17.78 4.53 2.92 1.54 -1.93 -4.86 -8.53 -10.29 -9.80 -11.22 -13.17 -11.86 -10.17 -10.40 -11.63 -11.85 -10.49 -8.39 -10.71 -12.15 -9.11 -10.92 -11.77 -7.09 -6.41 -6.40 -5.90 -4.42 -3.18
6.05 8.00 8.21 5.98 9.81 9.92 10.31 10.60 10.84 10.64 9.20 8.12 6.09 3.79 -1.87 -1.17 0.09 -1.15 -5.43 -9.21 -10.39 -9.29 -9.18 -12.46 -14.37 -11.77 -10.66 -11.33 -13.18 -11.24 -7.03 -6.59 -8.40 -14.15 -5.90 -6.85 -8.31 -7.46 -7.09 -7.81 -6.15 -4.74 -4.22
7.84 9.81 11.21 10.71 10.73 10.71 9.99 9.19 9.33 8.26 6.94 5.36 3.61 2.00 1.00 0.78 -1.27 -0.70 -3.07 -6.99 -7.16 -7.71 -9.32 -9.82 -10.05 -9.93 -11.50 -12.20 -13.79 -13.11 -11.37 -8.65 -10.96 -5.74 -8.39 -6.96 -7.58 -7.45 -7.01 -6.63 -4.50 -3.55 -3.14
8.15 9.88 10.76 10.77 9.69 9.34 8.43 8.18 7.56 6.13 4.03 2.98 0.27 -0.47 1.01 0.42 -0.45 -2.69 -4.33 -3.97 -6.27 -8.53 -6.45 -7.50 -8.63 -9.81 -11.00 -12.26 -12.71 -14.18 -10.50 -4.91 -8.56 -8.70 -6.32 -6.75 -8.37 -8.42 -7.43 -6.13 -4.79 -3.20 -3.37
6.09 7.22 7.63 7.44 8.33 7.82 7.62 6.84 6.23 4.04 2.26 1.07 2.38 2.84 1.38 -0.09 -1.60 -2.16 -3.02 -3.95 -5.89 -6.69 -7.83 -7.32 -8.06 -10.71 -12.19 -11.24 -11.05 -9.01 -6.39 -0.04 -2.37 -5.65 -6.47 -7.78 -8.87 -7.29 -5.48 -3.86 -4.28 -6.50 -3.45